Home > Weather > Laredo > Past weeks

Flag for USA Past Weather in Laredo, Texas, USA — Yesterday and Last 2 Weeks

Now
85 °F

Mostly cloudy.


Feels Like: 93 °F
Forecast: 79 / 95 °F
Wind: 15 mph from Southeast

Location: Laredo International Airport

Current Time: Jun 25, 2016 at 11:11:20 AM

Latest Report: Jun 25, 2016 at 10:56 AM


Visibility: 10 mi

Pressure: 30.00 "Hg

Humidity: 72%

Dew Point: 75 °F

Location of LaredoLocation

Past Weather in Laredo — Graph

°F

Laredo Temperature Yesterday

Maximum temperature yesterday: 101 °F (at 4:56 PM)
Minimum temperature yesterday: 76 °F (at 5:56 AM)
Average temperature yesterday: 88 °F

High & Low Weather Summary for the Past Weeks

 TemperatureHumidityPressure
High104 °F (Jun 15, 3:56 PM)91% (Jun 17, 5:56 AM)30.18 "Hg (Jun 17, 5:56 AM)
Low73 °F (Jun 21, 6:56 AM)27% (Jun 18, 3:56 PM)29.73 "Hg (Jun 14, 5:56 PM)
Average88 °F62%29.95 "Hg
* Reported Jun 10 9:56 AM — Jun 25 8:56 AM, Laredo, Weather by CustomWeather, © 2016

Note: Actual official high and low records may vary slightly from our data, if they occured in-between our weather recording intervals... More about our weather records

Advertising

Laredo Weather History for the Previous 24 Hours

Scroll right to see more
 ConditionsComfort  
Time TempWeatherWind HumidityBarometerVisibility
8:56 AM
Sat, Jun 25
83 °FCloudy.14 mph77%29.99 "Hg10 mi
7:56 AM82 °FMostly cloudy.13 mph79%29.98 "Hg10 mi
6:56 AM81 °FOvercast.8 mph79%29.96 "Hg10 mi
5:56 AM81 °FOvercast.13 mph79%29.95 "Hg10 mi
4:56 AM80 °FOvercast.13 mph81%29.94 "Hg10 mi
3:56 AM80 °FClear.12 mph79%29.94 "Hg10 mi
2:56 AM81 °FClear.14 mph74%29.94 "Hg10 mi
1:56 AM82 °FClear.14 mph72%29.95 "Hg10 mi
12:56 AM82 °FClear.14 mph72%29.96 "Hg10 mi
11:56 PM
Fri, Jun 24
84 °FClear.16 mph65%29.96 "Hg10 mi
10:56 PM85 °FClear.20 mph63%29.94 "Hg10 mi
9:56 PM88 °FClear.21 mph59%29.90 "Hg10 mi
8:56 PM91 °FPartly sunny.21 mph52%29.88 "Hg10 mi
7:56 PM95 °FScattered clouds.23 mph37%29.87 "Hg10 mi
6:56 PM99 °FScattered clouds.18 mph30%29.86 "Hg8 mi
5:56 PM100 °FSunny.18 mph29%29.86 "Hg10 mi
4:56 PM101 °FSunny.22 mph28%29.88 "Hg10 mi
3:56 PM98 °FPartly sunny.13 mph33%29.90 "Hg10 mi
2:56 PM98 °FPartly sunny.15 mph36%29.93 "Hg10 mi
1:56 PM97 °FPartly sunny.14 mph39%29.96 "Hg10 mi
12:56 PM95 °FScattered clouds.12 mph43%29.98 "Hg6 mi
11:56 AM91 °FScattered clouds.14 mph52%30.01 "Hg6 mi
Weather by CustomWeather, © 2016

See weather overviewHow to use our weather pages